Grand Junction, CO

7:44 AM MDT on October 17, 2019 (GMT -0600)
Walker

Weather History for KGJT - March, 2019

Change the Weather History Date:

Tuesday, March 12, 2019

  Actual Average Record
Temperature  
Mean Temperature 41 °F 43 °F  
Max Temperature 44 °F 56 °F 74 °F (1900)
Min Temperature 38 °F 31 °F 10 °F (1948)
Degree Days  
Heating Degree Days 24 22  
Month to date heating degree days 264 281  
Since 1 July heating degree days 4719 4660  
Cooling Degree Days 0 0  
Month to date cooling degree days 0 0  
Year to date cooling degree days 0 0  
Moisture  
Dew Point 38 °F    
Average Humidity 83    
Maximum Humidity 96    
Minimum Humidity 70    
Precipitation  
Precipitation 0.49 in 0.02 in 0.49 in (2019)
Month to date precipitation 1.45 0.30  
Year to date precipitation 2.89 1.42  
Snow  
Snow 0.00 in 0.10 in 3.00 in (1893)
Month to date snowfall 0.0 1.0  
Since 1 July snowfall 17.4 16.5  
Snow Depth 0.00 in    
Sea Level Pressure  
Sea Level Pressure 29.67 in    
Wind  
Wind Speed 8 mph (ESE)    
Max Wind Speed 21 mph    
Max Gust Speed 27 mph    
Visibility 8 miles    
Events Rain    
T = Trace of Precipitation, MM = Missing Value Source: NWS Daily Summary

Daily Weather History Graph

Daily Weather History Graph

Search for Another Location

Airport or City:

Astronomy

Mar. 12, 2019 Rise Set
Actual Time 7:30 AM MDT 7:17 PM MDT
Civil Twilight 7:03 AM MDT 7:44 PM MDT
Nautical Twilight 6:32 AM MDT 8:15 PM MDT
Astronomical Twilight 6:01 AM MDT 8:46 PM MDT
Moon 10:57 AM MDT (3/12) 12:18 AM MDT (3/12)
Length of Visible Light 12h 40m
Length of Day
11h 47m
Waxing Crescent, 32% of the Moon is Illuminated
Mar 12
Waxing Crescent
Mar 14
First Quarter
Mar 20
Full
Mar 27
Last Quarter
Apr 5
New

Hourly Weather History & Observations

Time (MDT) Temp. Windchill Dew Point Humidity Pressure Visibility Wind Dir Wind Speed Gust Speed Precip Events Conditions
12:53 AM 41.0 °F 37.1 °F 36.0 °F 82% 29.96 in 10.0 mi SE 5.8 mph - N/A   Clear
1:53 AM 39.0 °F 36.8 °F 35.1 °F 86% 29.94 in 10.0 mi East 3.5 mph - N/A   Clear
2:53 AM 39.9 °F - 34.0 °F 79% 29.92 in 10.0 mi Calm Calm - N/A   Partly Cloudy
3:53 AM 41.0 °F 35.8 °F 35.1 °F 79% 29.89 in 10.0 mi East 8.1 mph - N/A   Overcast
4:53 AM 42.1 °F 34.9 °F 34.0 °F 73% 29.86 in 10.0 mi East 13.8 mph - N/A   Partly Cloudy
5:53 AM 41.0 °F 33.1 °F 35.1 °F 79% 29.86 in 10.0 mi ESE 15.0 mph - N/A   Partly Cloudy
6:53 AM 39.9 °F 32.9 °F 34.0 °F 79% 29.84 in 10.0 mi ESE 11.5 mph - N/A   Overcast
7:53 AM 39.0 °F 31.0 °F 33.1 °F 79% 29.83 in 10.0 mi East 13.8 mph - N/A   Overcast
8:53 AM 42.1 °F 35.2 °F 34.0 °F 73% 29.82 in 10.0 mi East 12.7 mph - N/A   Mostly Cloudy
9:16 AM 43.0 °F 35.1 °F 37.0 °F 80% 29.85 in 10.0 mi ESE 17.3 mph - N/A   Scattered Clouds
9:53 AM 44.1 °F 36.5 °F 36.0 °F 73% 29.80 in 10.0 mi ESE 17.3 mph - N/A   Scattered Clouds
10:53 AM 44.1 °F 37.1 °F 37.0 °F 76% 29.79 in 10.0 mi SE 15.0 mph - N/A   Overcast
11:53 AM 42.1 °F 34.9 °F 37.9 °F 85% 29.77 in 7.0 mi ESE 13.8 mph - 0.04 in Rain Light Rain
12:53 PM 43.0 °F 36.4 °F 39.9 °F 89% 29.73 in 10.0 mi SE 12.7 mph - 0.02 in Rain Light Rain
1:53 PM 42.1 °F 35.7 °F 37.9 °F 85% 29.70 in 5.0 mi ESE 11.5 mph - 0.04 in Rain Light Rain
2:53 PM 42.1 °F 37.7 °F 39.0 °F 89% 29.65 in 9.0 mi East 6.9 mph - 0.08 in Rain Light Rain
3:53 PM 43.0 °F 41.3 °F 39.9 °F 89% 29.61 in 10.0 mi South 3.5 mph - 0.00 in Rain Light Rain
4:53 PM 44.1 °F 42.5 °F 39.0 °F 82% 29.56 in 10.0 mi SSE 3.5 mph - 0.00 in   Scattered Clouds
6:53 PM 43.0 °F 41.3 °F 39.9 °F 89% 29.51 in 10.0 mi WNW 3.5 mph - N/A   Overcast
7:53 PM 42.1 °F 39.2 °F 41.0 °F 96% 29.48 in 10.0 mi NNW 4.6 mph - 0.00 in Rain Light Rain
8:53 PM 42.1 °F - 41.0 °F 96% 29.47 in 6.0 mi Calm Calm - 0.03 in Rain Light Rain
9:53 PM 42.1 °F - 41.0 °F 96% 29.44 in 5.0 mi Calm Calm - 0.09 in Rain Light Rain
10:18 PM 41.0 °F 38.0 °F 39.9 °F 96% 29.49 in 5.0 mi SE 4.6 mph - 0.03 in Rain Light Rain
10:29 PM 41.0 °F 38.0 °F 39.9 °F 96% 29.49 in 5.0 mi SE 4.6 mph - 0.04 in Rain Light Rain
10:40 PM 41.0 °F 39.0 °F 39.9 °F 96% 29.48 in 4.0 mi ESE 3.5 mph - 0.07 in Rain Rain
10:53 PM 41.0 °F 37.1 °F 39.9 °F 96% 29.43 in 4.0 mi ESE 5.8 mph - 0.10 in Rain Light Rain
11:10 PM 41.0 °F 38.0 °F 39.9 °F 96% 29.46 in 4.0 mi ESE 4.6 mph - 0.03 in Rain Light Rain
11:26 PM 41.0 °F - 41.0 °F 100% 29.45 in 5.0 mi Calm Calm - 0.04 in Rain Light Rain
11:53 PM 41.0 °F - 39.9 °F 96% 29.39 in 5.0 mi Calm Calm - 0.06 in Rain Light Rain